Date,TemperatureHighF,TemperatureAvgF,TemperatureLowF,DewpointHighF,DewpointAvgF,DewpointLowF,HumidityHigh,HumidityAvg,HumidityLow,PressureMaxIn,PressureMinIn,WindSpeedMaxMPH,WindSpeedAvgMPH,GustSpeedMaxMPH,PrecipitationSumIn
2013-10-1,83,74,67,61,56,50,65,53,41,30.09,30.00,9,1,9,0.00
2013-10-2,84,72,63,62,54,50,71,53,39,30.09,30.03,9,1,9,0.00
2013-10-3,87,75,65,66,56,52,73,54,39,30.09,30.00,9,1,9,0.00
2013-10-4,89,77,67,69,58,54,79,55,38,30.09,30.00,9,0,9,0.00
2013-10-5,88,76,68,68,58,54,74,54,38,30.09,30.00,9,1,9,0.00
2013-10-6,72,70,68,58,57,56,69,64,57,30.03,29.94,0,0,0,0.00
2013-10-9,71,66,60,60,55,51,75,68,62,30.03,30.00,6,1,6,0.00
2013-10-10,83,69,59,65,53,44,87,61,36,30.03,29.97,8,0,8,0.00
2013-10-11,84,69,58,62,49,42,69,50,36,30.00,29.91,8,0,8,0.00
2013-10-12,86,70,58,61,49,42,67,49,34,30.03,29.94,9,0,9,0.00
2013-10-13,85,69,56,60,48,42,66,48,36,30.06,29.97,8,0,8,0.00
2013-10-14,79,69,62,60,52,46,67,55,44,30.06,29.94,10,1,10,0.00
2013-10-15,74,70,68,63,59,53,78,69,58,30.00,29.91,9,1,9,0.04
2013-10-16,84,72,64,69,61,56,88,69,50,29.97,29.88,8,0,8,0.00
2013-10-17,87,73,63,69,57,52,81,60,38,29.97,29.88,6,0,6,0.00
2013-10-18,88,75,64,67,57,52,75,54,38,29.97,29.88,8,0,8,0.00
2013-10-19,86,75,68,66,60,55,72,60,39,29.97,29.85,8,0,8,0.16
2013-10-20,79,72,67,65,60,54,80,66,51,30.00,29.88,5,1,6,0.00
2013-10-21,84,74,65,70,61,53,82,65,50,30.00,29.94,6,1,6,0.08
2013-10-22,86,75,70,74,65,58,84,70,44,29.97,29.83,9,0,9,0.24
2013-10-23,76,68,54,68,52,36,99,61,35,30.00,29.80,13,1,13,0.00
2013-10-24,67,56,49,42,36,32,54,47,40,30.09,29.97,8,0,8,0.00
2013-10-25,77,59,46,49,38,32,64,48,35,30.18,30.06,10,1,10,0.00
2013-10-26,74,58,46,46,36,29,57,46,36,30.18,30.06,5,0,6,0.00
2013-10-27,74,57,43,46,36,30,62,46,36,30.09,30.00,8,0,8,0.00
2013-10-28,79,62,47,51,41,29,62,47,35,30.15,30.03,8,1,8,0.00
2013-10-29,80,65,54,56,45,39,65,49,37,30.21,30.09,10,1,10,0.00
2013-10-30,82,68,57,59,49,42,67,51,40,30.21,30.12,8,1,8,0.00
2013-10-31,84,71,61,62,51,45,72,51,36,30.12,29.97,10,1,10,0.00